Location: site
(53.0000°N, 23.0500°E)
Time: 19:41:47
(UTC+01:00)

SAOCOM 1-A - Pass Details

Date: 04 December 2020
Orbit: 621 x 623 km, 97.9° (Epoch: 24 January)

Event Time Altitude Azimuth Distance (km) Brightness Sun altitude
Rises 02:55:21 0° 109° (ESE) 2,904 ? -38.9°
Reaches altitude 10° 02:58:29 10° 84° (E) 2,002 ? -38.4°
Enters shadow 03:00:06 14° 62° (ENE) 1,779 ? -38.2°
